Dewpoint
59 58 59 59 59 59 59 59 58 59 58 58 59 59 60 62 61 54 52 54 52 52 51 49 48 48 47 43 44 43 38 33 34 35 36 37 37 37 35 33 32 32 32 33 46
57 57 57 56 57 58 57 56 56 56 56 56 56 58 59 59 53 51 52 57 56 54 49 47 45 46 41 43 43 39 34 32 32 31 32 33 34 36 36 36 34 32 32 38 54
56 56 57 56 56 56 55 56 56 56 57 57 57 57 59 55 49 44 56 54 56 47 47 49 45 43 40 41 41 40 37 36 36 37 37 36 32 33 37 37 36 36 35 35 50
56 56 55 55 55 56 56 56 55 56 56 56 56 57 58 52 37 48 59 56 54 46 43 40 39 39 39 39 40 39 39 39 38 38 39 39 39 38 35 34 38 39 39 37 39
56 55 55 55 55 55 56 56 56 56 55 54 55 57 51 47 43 45 47 49 43 41 40 40 40 40 38 40 39 37 37 39 39 38 37 37 38 40 39 36 34 38 42 40 39
55 55 55 55 55 56 56 56 54 55 55 53 56 54 48 39 42 43 43 42 42 42 42 39 36 38 36 35 35 36 35 35 33 33 33 32 36 36 35 39 37 34 38 43 42
54 54 55 56 56 56 56 56 55 54 54 53 58 50 45 42 44 39 43 40 41 40 35 35 36 35 38 36 36 35 32 29 27 27 29 36 31 35 36 37 40 40 36 38 42
54 54 54 55 56 56 55 54 54 53 51 51 53 50 44 44 41 35 37 34 38 38 36 37 37 36 35 36 31 30 28 26 23 26 27 33 29 29 36 36 37 38 35 36 38
53 53 53 54 53 53 53 53 53 52 50 48 48 46 41 41 38 40 35 34 34 36 37 36 36 34 33 30 27 27 24 21 22 24 28 31 30 28 30 28 30 33 36 37 36
52 52 52 52 52 51 52 51 50 46 45 43 42 38 37 35 38 39 40 35 32 31 30 33 35 31 31 29 17 19 22 21 23 23 24 25 27 26 27 27 26 26 29 32 37
51 50 51 52 50 48 48 47 40 38 40 36 33 36 33 34 38 33 33 35 33 28 25 30 24 17 18 24 22 20 21 23 20 21 23 23 22 19 19 21 23 24 25 26 34
51 50 50 51 48 46 43 39 38 40 35 38 33 33 36 35 25 26 34 27 26 21 26 21 15 19 18 17 14 15 17 18 20 17 15 15 14 12 14 18 22 28 32 32 34
50 50 49 49 48 44 40 40 42 41 37 32 29 26 29 32 26 25 24 25 21 19 17 14 13 19 17 12 11 9 12 13 12 10 6 13 3 4 13 18 21 23 28 30 34
49 49 48 48 46 44 40 41 42 42 34 22 21 24 30 31 26 27 23 22 23 18 16 14 16 16 14 13 12 10 11 13 9 10 6 6 4 1 9 16 25 30 33 34 36
49 49 47 45 43 40 40 42 43 41 32 22 22 28 26 27 26 22 25 24 19 16 17 12 13 15 15 12 15 10 13 12 12 9 8 3 11 8 6 16 22 24 26 31 34
49 48 45 43 42 40 43 43 40 33 30 21 24 24 23 24 25 25 21 24 24 19 21 18 21 18 14 15 14 14 12 8 13 15 12 10 12 -5 13 20 21 21 22 25 26
49 46 43 41 39 42 42 38 35 33 24 22 22 26 25 23 20 16 15 15 13 15 13 13 11 11 14 13 14 13 9 11 10 12 8 8 2 -5 18 20 20 18 19 21 24
47 43 42 40 42 42 39 36 32 17 19 27 27 26 21 21 17 17 16 14 14 13 16 14 7 10 16 14 11 10 13 11 3 3 1 1 -4 -5 18 20 16 16 16 20 23
44 43 42 42 42 40 37 35 27 19 27 26 24 20 18 17 19 18 16 14 15 17 17 18 10 15 16 16 14 12 15 18 11 8 9 4 4 7 12 18 13 12 16 21 24
43 43 40 42 42 38 38 30 22 28 29 27 21 21 19 19 21 20 19 15 14 21 23 19 17 14 14 16 17 14 16 14 20 7 2 -7 -5 -9 -6 11 14 13 18 21 25
44 39 40 43 39 37 36 25 24 27 30 27 24 23 22 22 23 20 23 18 15 22 24 27 21 13 15 13 11 16 15 16 19 16 4 -3 -9 -10 -2 16 12 15 17 22 25
42 39 41 43 36 33 31 26 28 27 30 30 29 26 24 23 25 24 22 21 17 23 19 22 25 17 15 15 15 16 22 21 12 9 12 9 3 1 5 7 9 14 19 20 21
38 36 40 41 35 33 28 26 27 27 27 28 27 27 26 24 25 25 23 22 23 20 22 23 22 16 13 16 17 19 17 19 18 16 12 8 3 6 3 8 10 12 21 18 21
39 36 36 37 34 28 27 25 25 27 27 28 27 27 27 25 25 24 24 23 21 22 25 25 24 18 11 17 20 17 19 19 18 15 9 7 8 6 5 11 16 17 20 17 21
39 35 33 34 31 30 30 27 24 25 28 29 28 27 25 24 22 22 22 23 24 26 26 31 23 21 19 17 18 17 19 20 19 19 15 8 5 5 9 14 16 19 21 17 16
34 33 34 32 28 29 28 27 25 25 28 26 27 22 25 26 22 21 26 27 25 23 26 31 22 20 21 16 16 15 16 18 18 17 15 13 12 12 13 16 19 15 15 14 13
41 39 36 32 32 28 27 26 27 27 26 24 25 26 25 25 24 25 26 29 28 27 25 26 24 21 16 13 14 14 14 15 17 18 18 13 16 14 17 19 18 19 19 18 13
Lifted_Index
9 9 10 10 10 10 10 10 10 11 11 11 10 10 9 9 9 10 11 11 11 12 13 13 13 13 13 13 13 12 11 9 10 11 11 11 11 10 10 10 10 10 9 8 6
9 10 10 10 10 11 11 11 11 11 11 11 11 10 10 10 10 11 11 11 11 12 13 13 13 13 13 13 12 12 11 11 11 11 11 11 11 11 10 10 9 9 8 7 5
10 10 11 11 11 11 11 11 11 11 11 11 11 11 10 10 11 11 11 12 12 12 13 13 13 13 13 13 13 13 12 12 12 11 11 11 11 11 10 9 7 6 6 5 4
10 10 10 11 11 11 11 11 11 11 11 12 11 11 11 11 11 12 12 12 12 13 13 13 13 14 13 13 13 13 13 12 12 12 11 11 10 9 8 7 5 4 4 4 4
10 10 10 10 10 10 10 10 11 11 12 12 12 11 11 11 12 12 12 13 13 13 13 13 14 14 14 14 14 14 13 13 13 12 11 10 8 6 5 4 3 3 2 2 3
9 9 9 9 9 10 10 10 11 11 12 12 12 11 12 12 13 13 13 13 14 14 14 14 15 15 15 15 14 14 14 13 12 11 10 8 5 3 2 2 2 2 2 2 2
10 10 10 9 9 9 10 10 11 11 12 11 11 12 12 13 14 14 14 15 15 15 16 16 16 16 15 15 14 14 13 12 11 9 7 5 3 2 1 1 2 2 2 2 2
10 10 10 10 10 10 10 10 11 12 12 12 11 12 13 14 15 15 15 16 16 16 17 17 16 16 15 15 14 13 12 10 8 5 4 3 2 2 2 2 2 2 2 2 2
11 11 11 11 11 11 11 11 12 12 13 13 12 13 14 15 15 16 16 16 17 17 17 17 16 16 15 14 13 12 11 8 5 3 3 3 2 2 3 3 3 3 3 3 3
12 12 12 12 12 12 12 12 12 13 13 13 13 14 15 16 16 17 17 17 17 17 17 16 15 15 14 13 12 11 9 6 4 3 2 3 3 3 3 3 4 3 3 3 3
12 13 13 12 12 13 13 13 13 13 14 14 15 15 16 16 17 17 17 17 17 16 16 15 15 14 14 13 12 10 8 5 3 3 3 3 3 3 3 4 4 4 4 4 3
13 13 13 13 13 13 13 13 14 14 13 14 15 16 16 16 16 17 17 17 16 15 15 15 14 14 13 13 11 9 7 5 3 3 3 3 3 3 4 4 5 4 4 4 4
14 14 14 13 13 14 14 14 15 14 12 13 14 15 16 16 16 16 17 17 16 15 15 14 14 14 13 12 10 8 6 4 3 3 3 3 2 3 4 4 5 5 4 4 4
14 14 14 14 13 13 14 15 16 13 10 10 13 15 16 16 16 16 17 16 16 15 15 14 14 13 12 11 10 7 5 4 3 2 2 2 2 3 3 4 4 4 4 4 4
14 14 14 14 13 14 15 16 15 11 7 8 12 14 15 15 15 16 16 16 16 15 15 14 13 13 12 11 9 7 5 4 3 2 2 2 2 2 3 3 4 4 5 5 5
14 14 14 14 14 14 16 15 12 8 5 7 10 13 14 14 15 15 15 16 15 14 14 13 13 12 11 10 9 7 5 3 2 2 1 1 2 2 3 3 3 4 5 6 6
14 14 14 14 14 15 15 13 8 5 6 8 10 12 13 13 14 14 14 14 14 13 12 12 11 11 11 9 8 6 4 2 1 1 1 1 1 2 2 3 3 4 5 6 6
14 14 14 14 15 15 13 9 6 6 7 9 10 11 11 12 13 14 13 13 13 13 12 10 10 10 10 9 7 6 4 2 1 1 1 1 1 1 2 2 3 4 5 6 6
13 12 13 14 15 14 10 7 6 7 9 10 10 9 10 11 13 13 13 13 14 13 12 11 10 10 10 8 7 5 4 2 1 1 1 1 1 1 1 1 2 4 5 6 6
11 11 12 14 15 12 8 6 7 9 11 10 9 8 9 11 12 13 13 13 14 13 13 12 11 10 9 8 6 5 3 2 2 1 0 0 1 1 1 1 2 4 5 6 6
10 11 13 14 13 10 7 6 8 11 13 12 10 10 11 12 12 12 13 13 14 13 13 12 11 10 9 7 6 4 3 2 2 1 1 1 1 1 2 2 3 4 5 6 6
10 11 13 13 10 7 6 7 8 10 12 12 12 12 12 13 13 13 13 13 13 13 13 12 11 9 8 7 6 4 3 2 2 2 1 1 1 2 2 2 3 4 4 5 6
9 10 12 11 8 6 6 7 7 9 10 12 13 13 14 13 13 14 14 13 13 12 12 12 11 9 7 7 5 4 3 2 2 2 1 1 1 2 2 2 2 3 3 4 5
9 9 9 9 8 7 7 6 7 8 10 12 13 14 14 14 14 14 14 14 13 12 12 11 10 9 7 6 4 3 2 2 1 1 1 1 1 1 2 2 2 2 2 3 4
8 8 8 8 7 7 7 6 6 7 10 11 12 14 14 14 14 14 14 14 13 12 12 11 10 9 8 6 4 3 2 1 1 1 1 1 1 1 2 2 2 2 3 3 4
8 8 8 7 7 7 7 6 6 7 10 11 13 14 15 14 14 15 14 14 13 12 12 10 9 9 8 6 5 4 3 1 1 1 1 1 1 1 2 2 2 3 4 4 5
8 8 8 7 7 7 6 6 7 8 10 12 14 15 15 15 15 15 14 14 13 12 12 10 9 8 8 6 5 4 3 1 1 1 1 1 1 1 1 2 2 3 4 5 6